GFSWCAN_500_temp_318.txt.gz
Temp
-16 -16 -16 -17 -17 -18 -19 -20 -20 -20 -20 -20 -21 -22 -24 -27 -30 -32 -32 -32 -32 -32 -32 -32 -32 -33 -33 -33 -33 -33 -33 -33 -33 -33 -34 -34 -33 -33 -33 -33 -32 -32 -32 -32 -31 -31 -30 -30 -30 -30 -30 -30 -30 -30
-16 -16 -17 -17 -18 -19 -19 -20 -20 -20 -20 -20 -21 -23 -27 -31 -32 -32 -32 -32 -32 -33 -33 -32 -33 -33 -33 -33 -33 -33 -33 -33 -34 -34 -34 -34 -33 -33 -33 -32 -32 -32 -32 -32 -32 -31 -30 -30 -30 -30 -30 -30 -30 -30
-17 -17 -18 -18 -19 -20 -20 -20 -20 -20 -20 -20 -23 -27 -31 -32 -32 -32 -33 -33 -33 -33 -33 -32 -32 -32 -33 -33 -33 -33 -33 -33 -33 -33 -33 -32 -32 -32 -32 -32 -32 -32 -31 -31 -31 -31 -30 -30 -30 -29 -29 -29 -29 -29
-17 -18 -19 -19 -20 -20 -21 -21 -20 -20 -21 -22 -26 -30 -32 -32 -32 -33 -33 -33 -33 -33 -32 -32 -33 -33 -33 -33 -33 -32 -32 -32 -32 -32 -32 -32 -32 -32 -32 -31 -31 -31 -31 -30 -30 -30 -30 -30 -30 -29 -29 -28 -28 -28
-18 -19 -19 -20 -20 -21 -21 -21 -20 -21 -22 -24 -29 -31 -32 -32 -32 -32 -32 -32 -32 -32 -32 -33 -32 -32 -32 -32 -32 -32 -32 -32 -32 -32 -32 -32 -31 -31 -31 -31 -31 -31 -30 -30 -30 -29 -29 -29 -29 -29 -29 -28 -28 -28
-19 -19 -20 -20 -21 -21 -21 -21 -22 -23 -25 -26 -30 -32 -32 -32 -32 -32 -32 -32 -32 -32 -32 -32 -32 -32 -32 -32 -32 -32 -32 -32 -32 -31 -31 -31 -31 -31 -30 -31 -30 -30 -30 -30 -29 -29 -29 -29 -29 -29 -29 -29 -28 -28
-20 -20 -20 -21 -21 -21 -22 -23 -23 -25 -27 -28 -30 -31 -31 -31 -31 -31 -31 -32 -32 -31 -31 -31 -31 -31 -32 -32 -32 -32 -32 -31 -31 -31 -31 -31 -31 -31 -30 -30 -30 -30 -30 -30 -30 -29 -29 -29 -29 -29 -29 -29 -29 -29
-20 -20 -21 -21 -21 -21 -23 -23 -25 -26 -28 -29 -30 -30 -31 -31 -31 -31 -31 -31 -31 -31 -31 -31 -31 -31 -32 -31 -31 -31 -31 -31 -31 -30 -30 -30 -30 -30 -30 -30 -30 -30 -30 -30 -29 -29 -29 -29 -29 -29 -29 -29 -29 -29
-20 -21 -21 -22 -22 -22 -23 -24 -26 -27 -28 -29 -30 -30 -30 -30 -30 -30 -30 -30 -30 -31 -31 -32 -32 -31 -31 -31 -31 -30 -30 -30 -30 -30 -30 -30 -30 -30 -30 -30 -30 -30 -30 -30 -29 -29 -29 -29 -29 -29 -29 -29 -29 -29
-21 -22 -22 -22 -22 -22 -24 -25 -26 -27 -28 -29 -29 -29 -30 -30 -30 -30 -30 -30 -30 -31 -32 -32 -31 -31 -31 -30 -30 -30 -30 -30 -30 -31 -30 -30 -30 -30 -30 -30 -30 -30 -30 -30 -30 -29 -29 -29 -29 -29 -29 -29 -29 -29
-21 -22 -22 -22 -23 -23 -24 -26 -26 -27 -28 -28 -29 -29 -30 -30 -30 -30 -30 -30 -31 -31 -31 -31 -31 -31 -31 -30 -30 -30 -30 -30 -31 -31 -31 -31 -30 -30 -30 -30 -30 -30 -30 -30 -30 -29 -29 -29 -29 -29 -29 -30 -30 -30
-22 -22 -22 -22 -23 -24 -25 -26 -27 -27 -28 -28 -28 -29 -29 -30 -30 -30 -30 -31 -31 -31 -31 -31 -31 -31 -31 -30 -30 -30 -30 -30 -30 -30 -30 -30 -30 -30 -30 -30 -30 -30 -30 -30 -29 -29 -29 -29 -30 -30 -30 -30 -30 -30
-22 -23 -23 -23 -24 -25 -26 -27 -27 -27 -28 -28 -29 -29 -29 -30 -30 -30 -31 -31 -31 -31 -31 -31 -31 -31 -31 -30 -30 -30 -30 -30 -30 -30 -30 -30 -30 -30 -30 -30 -30 -30 -30 -29 -29 -29 -29 -30 -30 -30 -30 -30 -30 -30
-23 -23 -23 -24 -25 -26 -26 -27 -27 -28 -28 -28 -29 -29 -30 -30 -30 -31 -31 -31 -31 -32 -31 -31 -31 -31 -31 -30 -30 -30 -30 -30 -30 -30 -30 -30 -30 -30 -30 -30 -29 -29 -29 -29 -29 -29 -29 -29 -29 -29 -30 -30 -30 -30
-23 -23 -24 -25 -26 -26 -27 -27 -28 -28 -28 -28 -29 -29 -30 -30 -31 -30 -31 -31 -31 -31 -31 -31 -31 -31 -31 -30 -30 -30 -30 -30 -30 -30 -30 -29 -29 -29 -29 -29 -29 -29 -29 -29 -29 -29 -29 -29 -29 -29 -29 -29 -30 -30
-23 -23 -24 -25 -26 -27 -27 -27 -28 -28 -28 -28 -29 -29 -30 -30 -30 -30 -30 -31 -31 -31 -31 -31 -31 -31 -31 -30 -30 -30 -30 -29 -29 -29 -29 -29 -29 -29 -29 -29 -29 -29 -29 -29 -29 -29 -29 -28 -29 -29 -29 -29 -29 -30
-24 -24 -25 -26 -26 -27 -27 -27 -28 -28 -28 -29 -29 -29 -30 -30 -30 -30 -30 -31 -31 -31 -31 -31 -31 -31 -30 -30 -30 -29 -29 -29 -29 -29 -29 -29 -29 -29 -29 -29 -28 -28 -28 -28 -28 -28 -28 -28 -28 -28 -28 -29 -29 -29
-24 -24 -25 -26 -27 -27 -27 -28 -28 -28 -28 -29 -29 -30 -30 -30 -30 -30 -30 -30 -30 -30 -30 -30 -30 -30 -30 -29 -29 -29 -29 -29 -29 -29 -29 -28 -28 -28 -28 -28 -28 -28 -28 -28 -28 -28 -27 -27 -28 -28 -28 -28 -29 -29
-24 -25 -26 -27 -27 -27 -28 -28 -28 -28 -28 -29 -29 -29 -30 -30 -30 -30 -30 -30 -30 -30 -30 -30 -29 -29 -29 -29 -29 -29 -29 -28 -29 -28 -28 -28 -28 -28 -28 -28 -27 -27 -28 -27 -27 -27 -27 -27 -27 -28 -28 -29 -29 -29
-25 -26 -27 -27 -27 -27 -28 -28 -28 -28 -29 -29 -29 -29 -29 -29 -29 -29 -30 -29 -29 -29 -29 -29 -29 -29 -29 -29 -29 -29 -28 -28 -28 -28 -28 -28 -28 -28 -28 -28 -27 -27 -27 -27 -27 -27 -27 -27 -28 -28 -28 -29 -29 -30
-26 -26 -27 -27 -28 -28 -28 -28 -28 -28 -28 -29 -29 -29 -30 -29 -29 -29 -29 -29 -29 -29 -29 -29 -29 -29 -29 -29 -29 -29 -28 -28 -28 -28 -28 -28 -28 -28 -28 -27 -27 -27 -27 -27 -27 -27 -27 -27 -28 -28 -28 -29 -29 -30
-27 -27 -28 -28 -28 -28 -28 -28 -28 -28 -28 -29 -29 -29 -29 -29 -29 -29 -29 -29 -29 -29 -29 -29 -28 -29 -29 -29 -28 -28 -28 -28 -28 -28 -28 -28 -28 -27 -27 -27 -27 -27 -27 -27 -27 -28 -28 -28 -28 -29 -29 -30 -30 -31
-27 -28 -28 -29 -28 -28 -28 -28 -28 -28 -28 -28 -29 -29 -29 -29 -29 -29 -29 -29 -29 -29 -29 -29 -29 -29 -28 -28 -28 -28 -28 -28 -28 -28 -28 -28 -28 -27 -27 -27 -27 -27 -28 -28 -28 -28 -29 -29 -30 -30 -30 -31 -31 -32
-27 -28 -29 -29 -29 -29 -29 -28 -28 -28 -28 -28 -28 -29 -29 -29 -29 -29 -29 -29 -29 -29 -29 -29 -29 -28 -28 -28 -28 -28 -28 -28 -28 -28 -28 -28 -28 -27 -27 -28 -28 -28 -28 -28 -29 -29 -29 -30 -30 -30 -31 -31 -32 -32
-27 -29 -29 -29 -29 -29 -29 -29 -29 -29 -29 -29 -28 -29 -29 -29 -29 -29 -29 -29 -29 -29 -29 -28 -28 -28 -28 -28 -28 -28 -28 -28 -28 -28 -28 -28 -28 -28 -28 -28 -28 -28 -29 -29 -29 -29 -30 -30 -31 -31 -32 -32 -32 -33
-27 -28 -29 -29 -30 -30 -30 -29 -29 -29 -29 -29 -29 -29 -29 -28 -28 -29 -29 -29 -28 -28 -28 -28 -28 -28 -28 -28 -28 -28 -28 -28 -28 -28 -28 -28 -28 -28 -29 -29 -29 -29 -29 -30 -30 -30 -30 -31 -31 -32 -32 -33 -33 -33
-27 -28 -29 -30 -30 -31 -30 -30 -30 -30 -29 -29 -29 -29 -28 -28 -28 -28 -28 -28 -28 -28 -28 -28 -28 -28 -28 -28 -28 -28 -28 -28 -28 -28 -28 -29 -29 -29 -29 -29 -30 -30 -30 -30 -30 -31 -31 -32 -32 -33 -33 -33 -33 -34
-28 -29 -30 -30 -31 -31 -31 -30 -30 -30 -30 -30 -29 -29 -28 -28 -28 -28 -28 -28 -28 -28 -28 -28 -28 -28 -28 -28 -28 -28 -28 -28 -29 -29 -29 -29 -29 -30 -30 -30 -30 -30 -31 -31 -31 -32 -32 -33 -33 -33 -33 -34 -34 -34
-30 -30 -31 -31 -31 -31 -31 -31 -30 -30 -30 -30 -29 -29 -29 -29 -29 -29 -28 -28 -28 -28 -28 -28 -28 -28 -28 -28 -29 -29 -29 -29 -29 -29 -30 -30 -30 -30 -30 -31 -31 -31 -31 -32 -32 -33 -33 -33 -33 -34 -34 -34 -34 -35
-31 -31 -31 -31 -31 -31 -31 -31 -30 -30 -30 -30 -29 -29 -29 -29 -29 -29 -29 -28 -28 -28 -28 -28 -28 -29 -29 -29 -29 -29 -29 -29 -29 -30 -30 -30 -31 -31 -31 -31 -31 -32 -32 -33 -33 -33 -33 -34 -34 -34 -34 -35 -35 -35
-32 -32 -32 -32 -31 -31 -31 -30 -30 -30 -30 -30 -30 -30 -30 -30 -29 -29 -29 -29 -29 -29 -28 -29 -29 -29 -29 -29 -29 -29 -29 -29 -30 -30 -30 -30 -31 -31 -31 -31 -32 -32 -33 -33 -33 -33 -34 -34 -34 -34 -35 -35 -35 -35
-32 -32 -31 -31 -31 -31 -31 -30 -31 -30 -30 -30 -30 -30 -30 -30 -30 -29 -29 -29 -29 -29 -29 -29 -29 -29 -29 -29 -29 -29 -29 -30 -30 -30 -31 -31 -31 -31 -32 -32 -32 -33 -33 -33 -34 -34 -34 -34 -35 -35 -35 -35 -35 -36
-32 -31 -31 -31 -31 -31 -31 -31 -31 -31 -30 -30 -30 -30 -30 -30 -30 -30 -30 -29 -29 -29 -29 -29 -29 -29 -30 -30 -30 -30 -30 -30 -31 -31 -31 -31 -32 -32 -32 -32 -33 -33 -33 -33 -34 -34 -34 -35 -35 -35 -36 -36 -37 -37

GFSWCAN_500_temp_324.txt.gz
Temp
-16 -16 -16 -17 -17 -18 -18 -18 -19 -20 -21 -21 -22 -23 -24 -25 -26 -28 -29 -29 -30 -31 -31 -31 -32 -32 -32 -32 -33 -33 -33 -33 -34 -34 -34 -34 -34 -34 -33 -33 -33 -33 -33 -33 -33 -33 -32 -32 -32 -32 -32 -31 -31 -31
-16 -17 -17 -17 -17 -18 -18 -19 -20 -21 -21 -22 -22 -23 -25 -25 -27 -28 -29 -29 -30 -30 -30 -31 -31 -31 -32 -32 -32 -33 -33 -33 -33 -33 -33 -33 -33 -33 -33 -33 -33 -33 -33 -33 -33 -32 -32 -32 -32 -32 -31 -31 -31 -31
-17 -17 -17 -17 -18 -18 -19 -20 -21 -21 -22 -22 -23 -24 -25 -26 -27 -28 -29 -29 -30 -30 -30 -30 -31 -31 -31 -31 -32 -32 -32 -32 -32 -33 -33 -33 -33 -33 -33 -33 -33 -32 -32 -32 -32 -32 -32 -31 -31 -31 -31 -31 -30 -30
-17 -17 -18 -18 -18 -19 -20 -20 -21 -22 -22 -22 -24 -25 -26 -26 -27 -28 -29 -29 -29 -30 -30 -30 -31 -31 -31 -31 -32 -32 -32 -32 -32 -32 -32 -32 -32 -32 -32 -32 -32 -32 -32 -32 -32 -32 -31 -31 -30 -30 -30 -30 -30 -29
-17 -18 -18 -18 -19 -19 -20 -21 -21 -22 -22 -23 -24 -25 -26 -27 -27 -28 -29 -29 -29 -29 -30 -31 -31 -31 -32 -32 -32 -32 -32 -32 -32 -31 -31 -31 -31 -32 -32 -32 -32 -32 -32 -32 -31 -31 -30 -30 -30 -30 -30 -29 -29 -28
-18 -18 -18 -19 -19 -20 -21 -21 -22 -22 -22 -24 -25 -26 -26 -27 -27 -28 -29 -29 -30 -30 -30 -31 -31 -31 -31 -31 -31 -31 -31 -31 -31 -31 -31 -31 -31 -31 -31 -31 -31 -31 -31 -31 -31 -30 -29 -29 -29 -30 -29 -29 -29 -29
-18 -18 -19 -19 -20 -20 -21 -22 -22 -22 -23 -24 -25 -26 -27 -27 -28 -28 -29 -30 -30 -30 -31 -31 -31 -31 -31 -31 -31 -31 -31 -31 -31 -31 -31 -31 -31 -31 -31 -31 -31 -31 -31 -31 -31 -30 -30 -30 -29 -29 -29 -29 -29 -29
-18 -19 -19 -19 -20 -21 -22 -22 -23 -23 -23 -25 -25 -26 -27 -27 -28 -29 -29 -30 -30 -31 -31 -31 -31 -31 -31 -30 -30 -30 -31 -31 -31 -31 -31 -31 -31 -31 -31 -31 -31 -31 -31 -31 -30 -30 -30 -30 -29 -29 -29 -29 -29 -29
-19 -19 -20 -20 -21 -21 -22 -22 -23 -23 -23 -25 -26 -26 -27 -28 -28 -29 -30 -30 -30 -31 -31 -31 -31 -31 -31 -30 -30 -30 -31 -31 -31 -31 -31 -31 -31 -31 -31 -31 -31 -30 -30 -30 -30 -30 -30 -30 -30 -29 -29 -29 -29 -29
-19 -19 -20 -20 -21 -22 -22 -23 -23 -23 -23 -25 -26 -26 -27 -28 -28 -29 -30 -30 -30 -31 -31 -31 -31 -31 -31 -30 -31 -31 -31 -31 -31 -31 -31 -31 -31 -31 -31 -30 -30 -30 -30 -30 -30 -30 -30 -30 -30 -30 -30 -30 -30 -30
-19 -20 -20 -21 -22 -22 -23 -23 -23 -23 -24 -25 -26 -26 -27 -28 -29 -29 -30 -30 -30 -31 -31 -31 -31 -31 -30 -30 -31 -31 -31 -31 -31 -31 -31 -30 -30 -30 -30 -30 -30 -30 -30 -30 -30 -30 -30 -30 -30 -30 -30 -30 -30 -30
-20 -20 -21 -21 -22 -23 -23 -23 -23 -23 -24 -25 -26 -26 -27 -28 -28 -29 -30 -30 -30 -31 -31 -31 -31 -31 -30 -30 -30 -30 -30 -30 -30 -30 -30 -30 -30 -30 -30 -30 -30 -30 -30 -30 -30 -29 -29 -29 -29 -29 -29 -29 -30 -30
-20 -21 -21 -22 -23 -23 -23 -23 -23 -24 -24 -25 -26 -27 -27 -27 -28 -29 -30 -30 -30 -31 -31 -31 -31 -31 -30 -30 -30 -30 -30 -30 -30 -30 -30 -30 -30 -30 -30 -30 -30 -29 -29 -29 -29 -29 -29 -29 -29 -29 -29 -29 -30 -30
-21 -21 -22 -22 -23 -23 -23 -23 -24 -24 -24 -25 -26 -27 -27 -28 -28 -29 -29 -30 -30 -30 -31 -31 -31 -30 -30 -30 -30 -30 -30 -29 -29 -29 -29 -29 -29 -29 -29 -29 -29 -29 -29 -29 -29 -29 -29 -29 -29 -29 -29 -29 -29 -29
-21 -21 -22 -23 -23 -24 -23 -24 -24 -24 -25 -26 -26 -27 -28 -28 -28 -29 -29 -29 -30 -30 -30 -30 -30 -30 -30 -30 -30 -29 -29 -29 -29 -29 -29 -29 -29 -29 -29 -29 -29 -29 -29 -29 -29 -29 -28 -28 -29 -28 -29 -29 -29 -29
-21 -22 -22 -23 -24 -24 -24 -24 -24 -24 -25 -26 -27 -27 -28 -28 -28 -29 -29 -29 -29 -29 -29 -30 -30 -29 -29 -29 -29 -29 -29 -29 -29 -29 -29 -29 -29 -29 -29 -29 -28 -28 -28 -28 -28 -28 -28 -28 -28 -28 -28 -28 -28 -29
-22 -22 -23 -24 -24 -24 -24 -24 -24 -25 -26 -26 -27 -27 -28 -28 -28 -29 -29 -29 -29 -29 -29 -29 -29 -29 -29 -29 -29 -29 -29 -29 -29 -29 -29 -29 -29 -29 -29 -28 -28 -28 -28 -28 -28 -28 -28 -28 -28 -28 -28 -28 -28 -28
-22 -23 -23 -24 -25 -24 -24 -24 -25 -25 -26 -26 -27 -28 -28 -28 -28 -29 -29 -29 -29 -29 -29 -29 -29 -29 -29 -29 -29 -29 -29 -29 -28 -28 -28 -28 -28 -28 -28 -28 -28 -28 -28 -28 -28 -28 -28 -27 -27 -28 -28 -28 -28 -28
-23 -23 -24 -25 -25 -25 -24 -24 -25 -25 -26 -27 -27 -28 -28 -28 -28 -28 -29 -29 -29 -29 -29 -29 -29 -29 -29 -29 -29 -29 -29 -29 -28 -28 -28 -28 -28 -28 -28 -28 -28 -28 -28 -28 -28 -27 -27 -27 -28 -28 -28 -28 -28 -28
-23 -24 -25 -25 -25 -25 -25 -25 -25 -26 -26 -27 -28 -28 -28 -28 -28 -28 -29 -29 -29 -29 -29 -29 -29 -29 -29 -29 -29 -29 -28 -28 -28 -28 -28 -28 -28 -28 -28 -28 -28 -28 -28 -28 -28 -28 -28 -28 -28 -28 -28 -28 -28 -29
-24 -25 -25 -25 -25 -25 -25 -25 -26 -26 -26 -27 -28 -28 -28 -29 -29 -29 -29 -29 -29 -29 -29 -29 -29 -29 -29 -29 -29 -29 -29 -28 -28 -28 -28 -28 -28 -28 -28 -28 -28 -28 -28 -28 -28 -28 -28 -28 -29 -29 -29 -29 -29 -29
-25 -26 -26 -26 -25 -25 -25 -26 -27 -27 -27 -28 -28 -29 -29 -29 -29 -29 -29 -29 -29 -29 -29 -29 -29 -29 -29 -29 -29 -29 -29 -29 -28 -28 -28 -28 -28 -28 -28 -28 -28 -28 -28 -28 -29 -29 -29 -29 -29 -29 -30 -30 -30 -30
-26 -26 -26 -26 -26 -25 -26 -27 -27 -28 -28 -28 -29 -29 -30 -30 -30 -29 -29 -29 -29 -29 -29 -29 -29 -29 -29 -29 -29 -29 -29 -28 -28 -28 -28 -28 -28 -28 -28 -28 -28 -28 -29 -29 -29 -29 -30 -30 -30 -30 -30 -30 -31 -31
-26 -26 -26 -26 -26 -26 -27 -27 -28 -28 -29 -30 -30 -30 -30 -30 -30 -30 -30 -30 -30 -29 -29 -29 -29 -29 -29 -29 -29 -28 -28 -28 -28 -28 -28 -28 -28 -28 -28 -28 -29 -29 -29 -29 -30 -30 -30 -30 -30 -30 -31 -31 -31 -32
-26 -26 -26 -26 -27 -27 -27 -27 -28 -29 -29 -30 -31 -31 -30 -30 -30 -30 -30 -30 -30 -30 -29 -29 -29 -29 -29 -29 -29 -28 -28 -28 -28 -28 -28 -28 -28 -29 -29 -29 -29 -29 -29 -30 -30 -30 -30 -30 -31 -31 -31 -31 -32 -32
-26 -26 -27 -27 -27 -27 -27 -28 -28 -28 -29 -30 -30 -31 -31 -31 -31 -30 -30 -30 -30 -30 -30 -30 -29 -29 -29 -29 -29 -29 -28 -28 -28 -29 -29 -29 -29 -29 -29 -29 -29 -29 -29 -30 -30 -30 -31 -31 -31 -31 -31 -32 -32 -33
-26 -28 -28 -28 -28 -28 -28 -28 -29 -29 -29 -29 -30 -31 -31 -31 -31 -31 -31 -30 -30 -30 -30 -30 -30 -30 -30 -29 -29 -29 -29 -29 -29 -29 -29 -29 -29 -29 -29 -29 -29 -29 -30 -30 -30 -31 -31 -31 -31 -32 -32 -32 -32 -33
-28 -28 -28 -28 -28 -28 -28 -28 -29 -30 -30 -31 -31 -31 -31 -31 -31 -31 -31 -31 -31 -30 -31 -30 -30 -30 -30 -30 -29 -29 -29 -29 -29 -29 -29 -29 -29 -29 -29 -30 -30 -30 -30 -31 -31 -31 -31 -32 -32 -32 -32 -33 -33 -33
-28 -28 -28 -28 -28 -28 -28 -29 -30 -31 -31 -31 -31 -32 -32 -32 -32 -32 -31 -31 -31 -31 -31 -30 -30 -30 -30 -30 -30 -30 -30 -29 -29 -29 -29 -29 -30 -30 -30 -30 -30 -30 -31 -31 -31 -32 -32 -32 -32 -32 -33 -33 -33 -33
-29 -28 -28 -29 -29 -29 -30 -30 -30 -32 -32 -33 -33 -32 -32 -32 -32 -32 -32 -31 -31 -31 -31 -31 -31 -31 -31 -30 -30 -30 -30 -30 -30 -30 -30 -30 -30 -30 -30 -31 -31 -31 -31 -32 -32 -32 -32 -32 -33 -33 -33 -33 -34 -34
-29 -29 -29 -30 -30 -31 -31 -31 -31 -32 -33 -33 -33 -32 -32 -32 -32 -32 -31 -31 -31 -31 -31 -31 -31 -31 -31 -31 -31 -30 -30 -30 -30 -30 -30 -31 -31 -31 -31 -31 -32 -32 -32 -32 -32 -33 -33 -33 -33 -33 -34 -34 -34 -34
-30 -31 -31 -32 -32 -32 -32 -32 -32 -32 -32 -32 -32 -32 -32 -32 -31 -31 -32 -32 -32 -32 -32 -32 -31 -31 -31 -31 -31 -31 -31 -31 -31 -31 -31 -31 -32 -32 -32 -32 -32 -32 -33 -33 -33 -33 -33 -33 -34 -34 -34 -34 -34 -35
-32 -32 -32 -32 -32 -32 -32 -32 -32 -32 -32 -32 -32 -32 -32 -32 -32 -32 -32 -32 -32 -32 -32 -32 -31 -31 -31 -31 -31 -31 -31 -31 -32 -32 -32 -32 -32 -32 -33 -33 -33 -33 -33 -33 -34 -34 -34 -34 -34 -35 -35 -35 -36 -37

GFSWCAN_500_temp_327.txt.gz
Temp
-16 -16 -16 -16 -17 -17 -18 -18 -18 -19 -20 -21 -22 -22 -23 -25 -26 -26 -27 -28 -29 -29 -30 -30 -30 -31 -31 -32 -32 -32 -32 -33 -33 -33 -34 -34 -34 -33 -34 -33 -33 -33 -33 -33 -33 -33 -33 -33 -33 -32 -32 -32 -32 -32
-16 -16 -16 -17 -17 -17 -18 -18 -19 -19 -20 -22 -22 -22 -24 -25 -26 -27 -28 -28 -29 -29 -30 -30 -31 -31 -31 -31 -32 -32 -32 -32 -33 -33 -33 -33 -33 -33 -33 -33 -33 -33 -33 -33 -33 -33 -33 -33 -32 -32 -32 -32 -32 -31
-16 -16 -17 -17 -17 -18 -18 -19 -19 -20 -21 -22 -22 -23 -24 -25 -26 -27 -28 -28 -29 -29 -30 -30 -31 -31 -32 -32 -32 -32 -32 -32 -32 -32 -32 -32 -32 -32 -32 -32 -32 -32 -32 -32 -33 -32 -32 -32 -32 -32 -32 -32 -31 -31
-16 -17 -17 -17 -18 -18 -19 -19 -19 -20 -21 -22 -22 -23 -25 -25 -26 -27 -28 -29 -29 -30 -30 -31 -31 -31 -31 -31 -31 -31 -31 -31 -31 -31 -31 -32 -32 -32 -32 -32 -32 -32 -32 -32 -32 -32 -32 -31 -31 -31 -31 -31 -30 -30
-17 -17 -17 -18 -18 -19 -19 -19 -20 -21 -22 -22 -23 -23 -25 -26 -27 -28 -28 -29 -29 -30 -31 -31 -31 -31 -31 -31 -31 -31 -31 -31 -31 -31 -31 -31 -31 -32 -32 -32 -32 -32 -32 -32 -31 -31 -30 -30 -30 -30 -30 -30 -30 -29
-17 -17 -18 -18 -19 -19 -19 -20 -20 -21 -22 -23 -23 -23 -25 -26 -26 -27 -28 -29 -29 -30 -31 -31 -31 -31 -31 -31 -31 -31 -31 -31 -31 -31 -31 -31 -31 -31 -31 -31 -32 -32 -32 -31 -31 -30 -29 -29 -30 -30 -30 -30 -29 -29
-18 -18 -18 -19 -19 -20 -20 -20 -21 -22 -22 -23 -23 -24 -25 -26 -26 -27 -28 -29 -30 -30 -31 -31 -31 -31 -31 -31 -31 -31 -31 -31 -31 -31 -31 -31 -31 -31 -31 -31 -31 -31 -31 -31 -30 -30 -30 -30 -30 -30 -29 -29 -29 -29
-18 -18 -19 -19 -20 -20 -20 -20 -21 -22 -23 -23 -23 -24 -25 -26 -27 -28 -29 -29 -30 -30 -31 -31 -31 -31 -31 -31 -31 -31 -31 -31 -31 -31 -31 -31 -31 -31 -31 -31 -31 -31 -31 -31 -30 -30 -30 -30 -30 -29 -29 -29 -29 -29
-18 -19 -19 -20 -20 -20 -20 -21 -21 -23 -23 -23 -23 -24 -25 -26 -27 -27 -28 -29 -30 -30 -30 -31 -31 -31 -31 -31 -31 -31 -31 -31 -31 -31 -31 -31 -31 -31 -31 -31 -31 -31 -31 -30 -30 -30 -30 -30 -30 -30 -30 -29 -29 -29
-19 -19 -20 -20 -20 -21 -21 -21 -22 -23 -23 -23 -23 -24 -25 -26 -27 -27 -28 -29 -30 -30 -31 -31 -31 -31 -30 -30 -31 -31 -31 -31 -31 -31 -31 -31 -31 -31 -31 -30 -30 -30 -30 -30 -30 -30 -30 -30 -30 -30 -30 -30 -30 -30
-19 -20 -20 -21 -20 -21 -21 -21 -22 -23 -23 -23 -23 -24 -25 -26 -27 -27 -28 -29 -29 -30 -30 -30 -30 -30 -30 -30 -30 -30 -30 -30 -30 -30 -30 -30 -30 -30 -30 -30 -30 -30 -30 -30 -30 -30 -30 -30 -30 -29 -29 -29 -29 -30
-20 -20 -20 -21 -21 -21 -21 -22 -23 -23 -24 -24 -24 -24 -25 -26 -26 -27 -28 -28 -29 -30 -30 -30 -30 -30 -30 -30 -30 -30 -30 -30 -30 -30 -30 -30 -30 -30 -30 -30 -30 -30 -30 -29 -29 -29 -29 -29 -29 -29 -29 -29 -29 -29
-20 -20 -21 -21 -21 -21 -22 -22 -23 -24 -24 -24 -24 -24 -25 -26 -27 -27 -28 -28 -29 -29 -30 -30 -30 -30 -30 -30 -30 -30 -29 -29 -29 -29 -29 -29 -29 -29 -29 -29 -29 -29 -29 -29 -29 -29 -29 -29 -29 -29 -29 -29 -29 -29
-20 -21 -21 -21 -21 -22 -22 -23 -23 -24 -24 -24 -24 -25 -25 -26 -27 -27 -28 -28 -29 -29 -29 -29 -30 -29 -29 -29 -29 -29 -29 -29 -29 -29 -29 -29 -29 -29 -29 -29 -29 -29 -29 -29 -29 -29 -29 -29 -29 -29 -29 -29 -29 -29
-21 -21 -21 -22 -22 -22 -23 -23 -24 -24 -24 -24 -25 -25 -26 -26 -27 -27 -28 -28 -28 -28 -29 -29 -29 -29 -29 -29 -29 -29 -29 -29 -29 -29 -29 -29 -29 -29 -29 -29 -29 -29 -28 -28 -28 -28 -28 -28 -28 -28 -28 -28 -28 -28
-21 -21 -22 -22 -22 -23 -23 -24 -25 -25 -25 -25 -25 -26 -26 -27 -27 -28 -28 -28 -28 -28 -28 -28 -28 -29 -29 -29 -29 -29 -29 -29 -29 -29 -29 -29 -29 -29 -29 -29 -28 -28 -28 -28 -28 -28 -28 -28 -28 -28 -28 -28 -28 -28
-21 -22 -22 -22 -23 -23 -24 -24 -25 -25 -25 -25 -25 -26 -26 -27 -28 -28 -28 -28 -28 -29 -29 -29 -29 -28 -28 -29 -29 -29 -29 -29 -29 -29 -29 -29 -29 -29 -29 -29 -28 -28 -28 -28 -28 -28 -28 -28 -28 -28 -28 -28 -28 -28
-22 -22 -22 -23 -23 -24 -24 -25 -26 -25 -25 -26 -26 -26 -27 -27 -28 -28 -28 -28 -28 -29 -29 -29 -29 -29 -29 -29 -29 -29 -29 -29 -29 -29 -28 -28 -28 -29 -28 -28 -28 -28 -28 -28 -28 -28 -28 -28 -28 -28 -28 -28 -28 -28
-22 -23 -23 -23 -24 -25 -25 -25 -26 -26 -26 -26 -26 -27 -27 -28 -28 -28 -28 -29 -29 -29 -29 -29 -29 -29 -29 -29 -29 -29 -29 -29 -29 -29 -28 -28 -28 -28 -28 -28 -28 -28 -28 -28 -28 -28 -28 -28 -28 -28 -28 -29 -29 -29
-23 -23 -23 -24 -25 -25 -25 -26 -26 -26 -26 -26 -26 -27 -27 -28 -28 -29 -29 -29 -29 -29 -29 -29 -29 -29 -29 -29 -29 -29 -29 -29 -29 -29 -29 -28 -28 -28 -28 -28 -28 -28 -28 -28 -28 -28 -28 -28 -29 -29 -29 -29 -29 -30
-24 -24 -24 -25 -26 -26 -26 -26 -26 -26 -26 -26 -26 -27 -27 -28 -29 -29 -29 -29 -29 -29 -29 -29 -29 -29 -29 -29 -29 -29 -29 -29 -29 -29 -29 -29 -28 -28 -28 -28 -28 -28 -28 -28 -28 -28 -29 -29 -29 -29 -30 -30 -30 -30
-24 -24 -24 -25 -26 -26 -26 -26 -27 -26 -26 -26 -27 -27 -27 -28 -29 -29 -30 -30 -30 -30 -30 -29 -29 -29 -29 -29 -29 -29 -29 -29 -29 -29 -29 -29 -28 -28 -28 -28 -28 -28 -28 -29 -29 -29 -29 -29 -29 -30 -30 -30 -30 -30
-25 -25 -25 -26 -26 -26 -26 -27 -26 -26 -26 -26 -27 -27 -27 -28 -29 -30 -30 -30 -31 -31 -30 -30 -30 -30 -29 -29 -29 -29 -29 -29 -29 -29 -29 -29 -28 -28 -28 -28 -28 -28 -29 -29 -29 -29 -29 -29 -30 -30 -30 -30 -31 -31
-25 -26 -26 -26 -26 -26 -27 -26 -26 -26 -27 -27 -27 -28 -28 -28 -29 -29 -30 -31 -31 -31 -31 -30 -30 -30 -30 -30 -29 -29 -29 -29 -29 -29 -29 -28 -28 -28 -29 -29 -29 -29 -29 -29 -29 -29 -29 -29 -30 -30 -30 -31 -31 -31
-26 -26 -26 -26 -27 -27 -27 -26 -27 -27 -27 -28 -28 -28 -29 -29 -29 -29 -30 -31 -31 -31 -31 -31 -31 -30 -30 -30 -30 -30 -30 -29 -29 -29 -29 -29 -29 -29 -29 -29 -29 -29 -29 -29 -29 -29 -30 -30 -30 -30 -31 -31 -31 -31
-26 -26 -27 -27 -27 -27 -27 -27 -27 -28 -27 -28 -28 -29 -29 -30 -30 -31 -31 -32 -32 -32 -31 -31 -31 -31 -31 -30 -30 -30 -30 -30 -30 -29 -29 -29 -29 -29 -29 -29 -29 -29 -29 -29 -30 -30 -30 -30 -31 -31 -31 -31 -32 -32
-26 -27 -28 -28 -27 -27 -28 -28 -28 -28 -27 -28 -28 -28 -29 -30 -31 -32 -32 -32 -32 -32 -32 -32 -31 -31 -31 -31 -31 -31 -31 -30 -30 -30 -30 -29 -29 -29 -29 -29 -30 -30 -30 -30 -30 -30 -31 -31 -31 -31 -32 -32 -32 -32
-28 -28 -28 -27 -28 -28 -28 -28 -28 -28 -28 -28 -28 -29 -31 -32 -32 -32 -32 -32 -32 -33 -32 -32 -32 -32 -31 -31 -31 -31 -31 -31 -30 -30 -30 -30 -30 -30 -30 -30 -30 -30 -30 -30 -31 -31 -31 -31 -31 -32 -32 -32 -33 -33
-28 -28 -28 -28 -28 -29 -28 -28 -28 -29 -29 -30 -30 -31 -32 -32 -33 -33 -33 -33 -33 -33 -33 -32 -32 -32 -31 -31 -31 -31 -31 -31 -31 -31 -31 -31 -31 -31 -31 -31 -31 -31 -31 -31 -31 -32 -32 -32 -32 -33 -33 -33 -33 -33
-28 -29 -28 -28 -28 -28 -29 -29 -29 -30 -31 -31 -31 -32 -33 -33 -33 -33 -33 -33 -32 -32 -32 -32 -32 -32 -31 -31 -32 -32 -32 -31 -31 -31 -31 -31 -31 -31 -31 -31 -31 -32 -32 -32 -32 -32 -32 -33 -33 -33 -33 -33 -34 -34
-29 -29 -29 -29 -29 -30 -30 -31 -32 -32 -32 -32 -32 -32 -32 -32 -32 -32 -32 -32 -32 -32 -32 -32 -32 -32 -32 -32 -32 -32 -32 -32 -31 -31 -31 -31 -31 -32 -32 -32 -32 -32 -32 -32 -33 -33 -33 -33 -33 -34 -34 -34 -34 -34
-30 -30 -31 -31 -31 -32 -32 -32 -32 -32 -32 -32 -33 -32 -32 -32 -32 -32 -32 -32 -32 -32 -32 -32 -32 -32 -32 -32 -32 -32 -32 -32 -32 -32 -32 -32 -32 -32 -32 -33 -33 -33 -33 -33 -33 -34 -34 -34 -34 -34 -34 -34 -35 -35
-32 -32 -32 -32 -32 -33 -33 -33 -33 -33 -33 -33 -33 -33 -33 -32 -33 -32 -32 -32 -32 -33 -33 -33 -33 -32 -32 -32 -32 -32 -32 -32 -32 -32 -33 -33 -33 -33 -33 -33 -33 -33 -34 -34 -34 -34 -34 -34 -35 -35 -35 -35 -35 -35

GFSWCAN_500_temp_330.txt.gz
Temp
-15 -15 -16 -16 -16 -17 -17 -17 -18 -19 -19 -19 -20 -22 -22 -22 -23 -25 -26 -27 -28 -29 -29 -30 -31 -31 -32 -32 -32 -32 -32 -32 -33 -33 -33 -33 -33 -33 -33 -33 -33 -33 -33 -33 -33 -33 -33 -33 -33 -33 -32 -32 -32 -32
-15 -16 -16 -16 -17 -17 -18 -18 -18 -19 -19 -20 -21 -22 -22 -23 -23 -25 -26 -27 -28 -29 -30 -30 -31 -31 -31 -31 -31 -32 -32 -32 -32 -32 -32 -32 -33 -33 -33 -33 -33 -33 -33 -33 -33 -33 -33 -33 -33 -33 -33 -32 -32 -32
-15 -16 -16 -17 -17 -18 -18 -18 -19 -19 -19 -20 -21 -22 -22 -23 -24 -25 -26 -27 -28 -29 -30 -31 -31 -31 -31 -31 -31 -31 -31 -31 -31 -32 -32 -32 -32 -32 -32 -32 -32 -32 -33 -33 -33 -33 -33 -33 -33 -33 -33 -33 -32 -32
-16 -16 -17 -17 -17 -18 -18 -18 -19 -19 -20 -20 -21 -22 -23 -23 -24 -25 -26 -27 -29 -29 -30 -31 -31 -31 -31 -31 -31 -31 -31 -31 -31 -31 -31 -31 -32 -32 -32 -32 -32 -32 -32 -32 -32 -32 -32 -32 -32 -32 -32 -32 -31 -31
-16 -16 -17 -17 -18 -18 -18 -19 -19 -20 -20 -21 -21 -22 -23 -23 -24 -25 -26 -27 -29 -29 -30 -31 -31 -31 -31 -31 -31 -30 -30 -31 -31 -31 -31 -31 -32 -32 -32 -32 -32 -32 -32 -32 -32 -31 -31 -31 -31 -31 -31 -31 -30 -30
-16 -17 -17 -18 -18 -19 -19 -19 -19 -20 -20 -21 -22 -22 -23 -23 -24 -25 -26 -27 -28 -28 -29 -31 -31 -31 -31 -31 -31 -31 -31 -31 -31 -31 -31 -31 -31 -31 -31 -31 -32 -32 -32 -31 -31 -30 -30 -30 -30 -30 -30 -30 -30 -29
-16 -17 -17 -18 -19 -19 -19 -19 -20 -20 -21 -21 -22 -23 -23 -24 -24 -25 -26 -27 -28 -29 -29 -30 -31 -30 -31 -31 -31 -31 -31 -31 -31 -31 -31 -31 -31 -31 -31 -31 -31 -31 -31 -31 -30 -30 -30 -30 -30 -30 -30 -30 -29 -29
-16 -17 -18 -18 -19 -19 -19 -20 -20 -20 -21 -21 -22 -23 -23 -24 -24 -26 -26 -27 -28 -29 -30 -30 -30 -30 -30 -30 -30 -30 -31 -30 -30 -30 -30 -31 -31 -31 -31 -31 -31 -31 -31 -30 -30 -30 -30 -30 -30 -30 -29 -29 -29 -29
-17 -17 -18 -19 -19 -20 -20 -20 -20 -20 -21 -22 -23 -23 -24 -24 -24 -26 -26 -27 -28 -28 -29 -30 -30 -30 -30 -30 -30 -30 -30 -30 -30 -30 -30 -30 -30 -31 -31 -31 -31 -30 -30 -30 -30 -30 -30 -30 -30 -30 -30 -30 -29 -29
-17 -18 -18 -19 -20 -20 -20 -20 -20 -20 -21 -22 -23 -23 -24 -24 -25 -26 -26 -27 -28 -28 -29 -29 -30 -30 -30 -30 -30 -30 -30 -30 -30 -30 -30 -30 -30 -30 -30 -30 -30 -30 -30 -30 -30 -30 -30 -30 -30 -30 -29 -29 -29 -29
-18 -18 -19 -20 -20 -20 -20 -21 -20 -21 -21 -22 -23 -24 -24 -24 -25 -26 -26 -27 -28 -28 -28 -29 -29 -29 -30 -30 -30 -30 -30 -30 -30 -30 -30 -30 -30 -30 -30 -30 -30 -30 -30 -30 -30 -30 -30 -29 -29 -29 -29 -29 -29 -29
-18 -19 -20 -20 -21 -21 -21 -21 -21 -21 -22 -22 -24 -24 -25 -25 -25 -25 -27 -27 -28 -28 -28 -28 -29 -29 -29 -29 -29 -29 -29 -29 -29 -29 -29 -29 -29 -29 -29 -29 -29 -29 -29 -29 -29 -29 -29 -29 -29 -29 -29 -29 -29 -29
-19 -19 -20 -21 -21 -21 -21 -21 -21 -21 -22 -23 -24 -24 -25 -25 -25 -26 -27 -27 -28 -28 -28 -28 -28 -29 -29 -29 -29 -29 -29 -29 -29 -29 -29 -29 -29 -29 -29 -29 -29 -29 -29 -29 -29 -29 -29 -29 -29 -29 -29 -29 -29 -29
-19 -20 -21 -21 -21 -21 -21 -22 -21 -22 -23 -24 -24 -25 -25 -25 -26 -26 -27 -28 -28 -28 -28 -28 -28 -28 -29 -29 -29 -29 -29 -29 -29 -29 -29 -29 -29 -29 -29 -29 -29 -29 -29 -29 -29 -29 -29 -29 -29 -28 -28 -28 -28 -28
-20 -20 -21 -21 -21 -21 -22 -22 -22 -23 -24 -25 -25 -25 -26 -26 -26 -26 -27 -28 -28 -28 -28 -29 -29 -29 -28 -29 -29 -29 -29 -29 -29 -29 -29 -29 -29 -29 -29 -29 -29 -29 -29 -28 -28 -28 -28 -28 -28 -28 -28 -28 -28 -28
-20 -21 -21 -21 -22 -22 -22 -23 -23 -23 -24 -25 -26 -26 -26 -26 -26 -26 -27 -28 -28 -28 -28 -28 -29 -29 -29 -29 -29 -28 -29 -29 -29 -29 -29 -29 -29 -29 -29 -29 -29 -29 -29 -28 -28 -28 -28 -28 -28 -28 -28 -28 -28 -28
-21 -21 -22 -22 -22 -22 -22 -23 -24 -24 -25 -26 -26 -26 -26 -26 -26 -26 -27 -28 -28 -29 -29 -29 -29 -29 -29 -29 -29 -29 -29 -29 -29 -29 -29 -29 -29 -29 -29 -29 -29 -29 -28 -28 -28 -28 -28 -28 -28 -28 -28 -28 -28 -28
-21 -22 -22 -22 -22 -22 -22 -24 -24 -24 -25 -26 -26 -26 -26 -26 -26 -26 -27 -28 -29 -29 -29 -29 -29 -29 -30 -29 -30 -30 -29 -29 -29 -29 -29 -29 -29 -29 -29 -29 -29 -29 -28 -28 -28 -28 -28 -28 -28 -28 -28 -29 -29 -29
-22 -22 -22 -22 -22 -22 -23 -23 -24 -25 -25 -26 -26 -26 -26 -26 -26 -26 -27 -27 -28 -29 -29 -29 -30 -29 -29 -30 -30 -30 -30 -30 -29 -29 -29 -29 -29 -29 -29 -28 -28 -28 -28 -28 -28 -28 -28 -28 -28 -29 -29 -29 -29 -29
-22 -23 -22 -22 -23 -23 -24 -24 -25 -25 -25 -25 -26 -26 -26 -26 -27 -27 -27 -28 -28 -29 -30 -30 -30 -30 -30 -30 -30 -30 -30 -30 -30 -30 -30 -30 -29 -29 -29 -29 -28 -28 -28 -28 -28 -28 -28 -29 -29 -29 -29 -29 -29 -30
-22 -22 -22 -22 -23 -25 -25 -26 -26 -26 -26 -26 -26 -26 -26 -27 -27 -27 -27 -28 -28 -30 -30 -30 -30 -30 -30 -30 -30 -30 -30 -30 -30 -30 -30 -30 -29 -29 -29 -29 -29 -28 -28 -28 -28 -29 -29 -29 -29 -29 -29 -29 -29 -30
-23 -23 -23 -23 -24 -25 -25 -26 -26 -26 -26 -26 -26 -27 -26 -27 -27 -28 -28 -29 -29 -30 -31 -31 -31 -31 -31 -31 -30 -30 -30 -30 -30 -30 -30 -30 -29 -29 -29 -29 -29 -28 -28 -28 -29 -29 -29 -29 -29 -29 -29 -29 -30 -30
-23 -23 -24 -24 -25 -25 -26 -26 -26 -26 -26 -26 -27 -27 -27 -27 -27 -28 -28 -29 -30 -31 -31 -31 -31 -31 -31 -31 -31 -31 -30 -30 -30 -30 -30 -30 -30 -29 -29 -29 -29 -29 -29 -29 -29 -29 -29 -29 -29 -29 -29 -30 -30 -30
-24 -24 -24 -25 -25 -26 -27 -27 -26 -26 -27 -27 -27 -27 -27 -27 -27 -27 -28 -29 -31 -31 -31 -32 -32 -32 -32 -31 -31 -31 -31 -30 -30 -30 -30 -30 -30 -30 -29 -29 -29 -29 -29 -29 -29 -29 -29 -29 -30 -30 -30 -30 -30 -31
-24 -25 -25 -26 -27 -27 -27 -27 -27 -27 -27 -27 -27 -27 -27 -27 -27 -28 -29 -30 -31 -31 -32 -32 -32 -32 -32 -32 -32 -31 -31 -31 -31 -31 -31 -30 -30 -30 -30 -30 -30 -29 -29 -29 -29 -29 -30 -30 -30 -30 -30 -30 -31 -31
-25 -25 -26 -27 -27 -27 -27 -27 -27 -27 -28 -28 -28 -28 -28 -27 -28 -28 -29 -30 -31 -32 -32 -32 -32 -33 -33 -33 -32 -32 -32 -31 -31 -31 -31 -31 -31 -31 -30 -30 -30 -30 -30 -30 -30 -30 -30 -30 -30 -31 -31 -31 -31 -32
-26 -27 -27 -28 -28 -28 -27 -28 -28 -28 -28 -28 -28 -28 -28 -28 -29 -30 -30 -31 -32 -33 -33 -33 -33 -33 -33 -33 -33 -32 -32 -32 -32 -31 -31 -31 -31 -31 -31 -31 -31 -31 -31 -31 -31 -31 -31 -31 -31 -31 -31 -32 -32 -32
-27 -27 -28 -28 -28 -28 -28 -28 -28 -28 -28 -28 -29 -29 -29 -30 -30 -30 -31 -32 -33 -34 -33 -33 -34 -33 -33 -33 -33 -32 -32 -32 -32 -32 -32 -32 -32 -31 -31 -31 -31 -31 -31 -31 -31 -32 -32 -32 -32 -32 -32 -32 -33 -33
-28 -28 -28 -28 -28 -28 -28 -29 -29 -29 -29 -29 -30 -30 -31 -31 -31 -32 -32 -33 -33 -33 -33 -33 -33 -33 -33 -32 -32 -32 -32 -32 -32 -32 -32 -32 -32 -32 -32 -32 -32 -32 -32 -32 -32 -32 -32 -32 -33 -33 -33 -33 -33 -34
-27 -27 -28 -29 -29 -29 -29 -29 -29 -30 -30 -31 -31 -32 -32 -32 -32 -32 -33 -33 -33 -33 -32 -32 -32 -32 -32 -32 -32 -32 -32 -32 -32 -32 -32 -32 -32 -32 -32 -32 -32 -32 -32 -33 -33 -33 -33 -33 -33 -33 -34 -34 -34 -34
-28 -28 -28 -29 -29 -29 -30 -30 -31 -31 -32 -32 -33 -33 -33 -33 -33 -33 -33 -33 -33 -33 -33 -33 -33 -33 -33 -33 -33 -33 -33 -33 -33 -32 -32 -32 -32 -32 -32 -33 -33 -33 -33 -33 -33 -33 -34 -34 -34 -34 -34 -34 -34 -35
-29 -30 -30 -30 -31 -32 -32 -32 -32 -32 -33 -34 -34 -34 -33 -33 -33 -33 -33 -33 -33 -33 -33 -33 -33 -33 -33 -33 -33 -33 -33 -33 -32 -33 -33 -33 -33 -33 -33 -33 -33 -34 -34 -34 -34 -34 -34 -34 -34 -35 -35 -35 -35 -35
-32 -32 -32 -33 -33 -33 -33 -34 -34 -34 -34 -35 -34 -34 -34 -34 -34 -34 -34 -34 -34 -33 -33 -33 -34 -34 -33 -33 -33 -33 -33 -33 -33 -33 -33 -33 -33 -33 -34 -34 -34 -34 -34 -34 -34 -35 -35 -35 -35 -35 -35 -35 -35 -36